Location: Aix-en-Ergny
(50.5839°N, 1.9996°E)
Time: 07:37:41
(UTC+00:00)

Cosmos 1812 Rocket - Pass Details

Date: 23 October 2019
Orbit: 606 x 632 km, 82.5° (Epoch: 17 November)

Event Time Altitude Azimuth Distance (km) Brightness Sun altitude
Rises 05:27:14 0° 347° (NNW) 2,939 6.8 -10.2°
Reaches altitude 10° 05:29:30 10° 345° (NNW) 2,025 6.0 -9.8°
Maximum altitude 05:33:57 66° 263° (W) 689 3.6 -9.1°
Drops below altitude 10° 05:38:21 10° 182° (S) 1,997 6.3 -8.4°
Sets 05:40:34 0° 180° (S) 2,895 7.1 -8.1°
